STARLINK-31205, 59046

Orbit data source: Space-Track

STARLINK-31205, 59046 is a payload satellite owned by SpaceX/Seattle (US) in LEO that was launched on Sun, 25 Feb 2024 UTC via an FALCON 9 launch vehicle from the Air Force Eastern Test Range (AFETR). Payload-class satellites include a variety of spacecraft equipped with specific instruments for various scientific and technological missions. These include communications satellites like Starlink; space stations such as the ISS; scientific satellites like the Hubble; Earth observation satellites from companies like Planet Labs, Umbra, and HawkEye 360; GPS; miniature CubeSats for education and research; and military/defense satellites.

Loading next visibility...
Identifier
59046, 2024-038Z
Orbit
LEO
Country
Flag of USUS
Related business
Manufacturer
SpaceX/Seattle
Mission
Operational Commercial Communications
Bus & Motor
STARLINK V2M, Unknown motor
Mass
730 kg wet, ~700 kg dry
Launch date (UTC)
2024-02-25 (2 years ago)
Launch vehicle
FALCON 9
Launch site
Air Force Eastern Test Range (AFETR)
Object type
Payload
Rocket body
Debris
Shape & HBR
Box + 2 Pan, 17.7 m
Radar Cross Section
33.884 m², Large (>1 m²)

Expand to show TLE details & history
Last TLE update: 2 days ago

TLE from 2 days ago
0 STARLINK-31205
1 59046U 24038Z   26171.06468819  .00002164  00000-0  88091-4 0  9993
2 59046  42.9923 165.5245 0001153 261.8037  98.2684 15.27590459130457
Epoch: 2026-06-20T01:33Z
TLE epoch observation values (Epoch: 2026-06-20T01:33:09.059Z)
Latitude
-0.00001°
Longitude
-126.04793°
Altitude
482.906 km
Speed
7.626 km/s
True Right ascension
11h 02m 05s
True Declination
0° 00' 00"
Sunlit
Object was in daylight at epoch
Visualization orbit readout
Latitude
Unknown
Longitude
Unknown
Altitude
Unknown
Speed
Unknown
Apparent Right ascension
Unknown
Apparent Declination
Unknown
Sunlit
N/A
Visualization observer readout
Local Sidereal Time
21:49:44
Azimuth
Unknown
Elevation
Unknown
Doppler factor
Unknown
Orbital elements
Apogee altitude
485.756 km
Perigee altitude
484.173 km
Semi-major axis
6,863.101 km
Eccentricity
0.00012
Inclination
42.9923°
RAAN
165.5245°
Arg. of periapsis
261.8037°
True anomaly
98.28147°
Mean anomaly
98.2684°
Eccentric anomaly
98.27494°
Mean motion
3.81736 °/min
Orbital period
94.31 mins
BSTAR
0.000088091
Loading maneuver chart data...
Computing Atmospheric mass density...
Loading historical data...
Loading historical data...
Loading historical data...
Loading historical data...
Loading historical data...
Loading historical data...
Loading historical data...

Documentation

Showing up to 5 results
|